Wetbulb
60.73 60.26 60.13 60.23 60.08 59.96 59.94 60.51 61.12 61.45 61.62 61.72 61.98 62.58 62.26 61.29 59.73 51.46 47.88 52.37 56.22 63.59 61.63 53.62 49.84 49.30 48.49 48.40 48.52 45.79 39.50 36.67 35.98 37.37 38.33 41.34 40.54 41.67 40.69 39.13 39.27 40.08 38.60 40.53 40.46
60.44 60.03 59.85 59.88 60.03 60.18 59.96 60.18 60.69 61.19 61.55 61.51 61.69 62.49 61.81 60.26 53.29 49.24 56.99 61.01 64.12 63.01 50.47 48.03 47.26 48.11 45.70 45.76 45.96 42.38 37.97 38.25 39.83 39.33 39.18 40.90 40.24 41.01 38.75 36.63 36.77 37.19 39.13 39.27 38.56
60.07 59.63 59.48 59.49 59.48 59.99 60.07 60.13 60.42 60.84 61.30 61.41 61.58 62.17 61.10 57.45 49.01 48.64 60.75 63.03 62.65 61.19 51.64 48.67 47.75 47.14 43.66 44.42 42.73 40.61 38.28 41.50 41.62 42.30 42.61 41.76 39.60 40.30 38.06 35.32 36.71 35.71 35.94 36.51 36.58
59.73 59.12 58.87 58.84 59.01 59.44 59.69 59.85 60.24 60.64 60.99 61.06 61.45 61.81 60.19 53.39 40.96 49.99 61.96 62.32 62.47 53.97 50.30 49.08 46.89 43.20 41.59 41.21 44.06 39.43 42.24 42.78 44.31 43.68 42.60 41.06 41.58 38.20 36.86 36.45 38.77 37.21 36.92 35.58 35.18
59.05 58.79 58.37 58.33 58.60 59.00 59.07 59.66 60.22 60.41 60.41 60.85 61.51 61.27 54.23 46.73 46.37 52.09 58.47 56.30 50.80 50.41 48.10 46.98 44.59 42.57 40.03 41.74 42.89 39.79 42.05 43.28 43.23 43.57 42.73 42.92 39.36 37.91 34.92 37.16 37.59 37.33 36.76 35.05 34.62
57.56 58.60 57.79 57.87 58.37 58.63 58.31 59.29 60.22 60.15 60.26 60.73 61.48 59.78 50.52 44.54 51.45 52.76 49.85 49.93 49.01 48.63 47.03 46.35 44.23 44.59 41.85 42.00 40.14 41.21 42.17 42.59 43.25 42.20 42.64 40.18 37.17 37.65 37.05 36.87 35.96 36.25 34.85 34.58 35.20
57.51 58.37 57.59 57.56 58.05 57.93 57.49 58.70 59.90 59.91 60.06 60.70 61.49 56.37 49.73 47.62 51.13 50.28 49.68 47.73 47.85 47.39 46.71 46.10 45.68 44.08 43.17 41.01 43.43 41.68 39.11 40.61 40.57 41.56 41.09 40.21 35.52 37.05 37.76 36.53 35.19 34.55 34.03 34.34 34.58
57.29 57.96 57.43 57.35 57.56 57.30 57.04 58.44 59.17 59.53 60.36 60.58 60.80 53.41 46.36 52.08 50.94 50.53 48.89 48.35 47.93 47.19 47.44 46.61 46.34 44.79 42.30 42.80 41.35 37.38 36.10 34.02 39.30 40.47 39.84 38.38 33.58 36.59 36.71 35.83 33.57 32.29 31.16 33.19 33.59
57.04 57.59 57.40 57.36 57.12 56.61 56.55 57.86 58.47 60.11 60.54 60.24 54.13 49.40 45.01 54.44 49.95 50.89 47.66 46.31 46.60 46.85 46.20 48.12 45.92 42.43 41.49 38.03 34.86 34.32 31.69 32.41 35.74 40.56 38.55 37.33 33.25 36.12 35.72 35.07 32.20 30.28 30.49 30.98 30.86
57.24 57.48 57.24 57.22 56.84 56.39 56.85 58.53 58.44 58.02 55.89 54.63 52.04 47.31 46.78 46.46 50.30 50.10 47.96 46.93 45.38 45.45 45.76 44.26 40.20 37.33 36.57 35.53 31.79 31.10 29.90 32.07 32.18 36.28 37.07 35.87 35.42 34.97 36.23 32.91 31.90 29.54 29.64 29.54 30.41
57.50 57.35 57.15 56.97 56.88 56.58 55.12 48.40 47.31 46.09 46.77 44.88 43.37 45.19 46.76 50.68 49.43 47.75 46.79 45.65 45.66 43.57 39.89 41.29 37.52 35.83 37.30 36.10 35.69 33.14 31.81 31.42 33.95 38.27 35.39 34.81 36.64 33.72 36.01 31.51 29.39 28.16 28.14 28.61 29.92
57.76 57.06 56.79 56.61 56.27 55.88 49.31 43.48 44.22 45.19 40.43 43.87 44.77 46.77 48.82 47.50 43.48 45.90 46.50 42.46 42.01 38.93 38.81 38.18 35.06 38.83 38.85 37.44 35.57 34.19 32.27 31.43 34.77 36.29 33.93 33.84 33.14 35.65 34.81 33.40 32.93 30.29 27.76 28.27 29.29
57.47 56.92 56.09 55.70 55.18 50.57 45.39 44.97 49.88 47.68 38.57 41.94 46.05 46.12 47.23 46.32 43.34 43.61 43.52 41.50 39.45 37.31 37.43 36.01 38.53 38.72 37.02 34.22 33.69 32.15 31.65 30.60 31.73 32.75 32.77 30.84 28.94 33.86 32.05 33.68 30.63 30.18 30.18 29.14 29.01
57.13 56.73 55.26 54.16 49.75 45.95 45.61 48.10 49.40 46.77 33.50 37.49 41.50 45.14 44.80 44.13 40.71 44.59 42.73 41.54 38.93 38.62 36.76 35.65 36.93 36.37 34.78 33.87 34.71 30.04 33.19 33.10 31.57 28.26 23.91 28.93 23.48 27.60 27.62 29.77 29.58 30.35 27.67 27.64 28.36
56.68 55.99 53.84 53.24 43.77 43.96 46.63 48.49 46.79 42.88 22.42 38.01 43.08 47.29 45.22 41.84 42.01 42.12 42.48 40.68 39.09 38.22 37.40 37.25 33.96 33.66 33.34 34.42 35.78 32.80 32.31 31.36 29.65 26.71 23.63 25.87 22.11 26.77 26.42 26.37 27.57 29.27 27.46 26.66 27.92
56.61 55.28 51.59 49.79 44.59 45.37 46.69 45.13 43.27 33.90 25.00 37.42 42.85 40.76 39.84 40.30 40.58 41.88 40.75 40.90 39.19 35.37 33.76 35.97 35.37 34.77 34.76 34.93 34.23 34.44 31.30 29.67 26.89 24.00 16.98 24.19 23.90 22.25 22.41 27.62 28.65 29.95 27.17 27.30 27.27
56.72 53.80 49.77 48.16 42.77 45.65 46.54 42.54 31.18 26.15 36.33 36.90 38.60 40.08 38.11 38.06 38.33 39.08 37.91 35.49 36.70 31.98 30.86 32.84 33.04 32.93 35.52 31.85 33.83 32.42 27.59 22.12 18.91 16.10 19.91 23.01 20.69 29.84 29.44 28.90 30.06 30.00 27.04 26.34 26.98
56.06 51.50 50.13 48.64 46.51 45.81 44.24 37.53 25.45 31.73 34.17 38.72 37.94 36.72 36.16 38.00 37.18 36.74 34.39 33.87 35.09 34.13 29.03 28.96 28.17 32.24 34.45 33.03 31.73 30.04 28.41 22.87 14.87 15.89 25.45 21.32 20.43 26.36 27.06 27.04 29.97 30.63 27.55 26.21 25.95
53.26 48.23 48.60 47.83 46.81 46.70 36.78 29.35 31.56 34.01 37.61 38.17 36.84 33.15 33.72 36.54 36.86 33.77 32.38 32.09 36.40 35.56 33.45 27.63 27.77 30.67 31.34 31.58 32.80 28.55 25.26 28.17 20.51 4.97 10.14 20.61 23.96 27.94 25.16 23.99 24.34 24.79 24.86 24.39 25.12
51.76 50.68 48.19 48.48 47.74 43.36 31.55 35.26 35.75 39.20 40.23 38.64 34.09 36.72 32.32 34.80 34.01 32.55 31.54 34.16 35.10 36.54 35.80 33.13 27.93 29.05 28.53 30.19 29.36 28.89 30.66 22.54 21.47 14.58 10.77 20.59 22.31 26.08 22.19 22.48 22.76 23.11 23.73 23.91 24.90
50.58 45.06 45.69 48.32 48.09 40.92 32.69 33.16 37.49 41.78 41.68 39.19 35.98 34.75 35.09 34.49 33.69 30.35 33.33 35.21 36.39 33.43 34.23 30.83 31.10 26.63 27.43 26.15 27.93 24.27 24.23 24.44 24.93 25.36 18.90 17.13 26.61 26.80 25.96 26.64 23.81 24.62 25.08 24.40 24.42
48.99 39.74 46.07 48.55 40.50 35.83 36.70 35.81 40.03 39.49 41.82 40.22 38.56 37.66 36.71 35.89 32.89 32.32 33.42 37.78 36.47 34.22 31.64 31.90 28.12 23.62 24.77 26.92 26.47 26.90 27.95 28.23 22.29 19.95 22.51 22.38 24.16 30.48 28.32 28.03 27.22 25.76 25.39 24.16 24.88
44.55 41.78 48.55 47.73 35.29 36.30 36.94 37.95 39.70 37.90 39.66 39.24 37.88 38.65 38.54 35.26 32.34 35.77 37.47 38.37 35.61 35.32 31.29 31.18 25.98 19.65 25.38 23.43 23.54 23.37 24.58 28.19 25.91 25.52 23.57 19.79 24.61 25.20 24.22 24.19 25.10 24.02 23.84 24.16 24.58
44.03 37.37 42.09 43.01 42.30 37.00 35.99 37.02 37.05 40.36 39.91 38.93 37.98 38.12 36.19 34.67 37.91 34.11 33.48 34.02 33.60 34.85 39.57 36.52 27.80 27.36 27.68 29.96 26.17 21.93 21.76 24.18 26.95 23.66 24.45 23.85 25.98 31.14 26.96 22.52 21.55 22.48 23.27 22.85 23.31
44.80 38.87 40.03 35.39 36.96 39.45 38.60 36.46 35.50 35.99 38.96 40.25 37.95 38.09 36.59 33.77 34.30 33.61 35.07 29.66 29.40 34.38 32.13 32.17 28.41 27.15 32.08 33.88 27.44 29.01 29.66 25.01 23.81 26.93 24.16 27.46 28.26 31.68 34.08 29.97 23.30 25.03 22.03 22.61 22.39
44.41 41.45 39.61 34.82 37.16 38.01 38.10 36.07 35.48 35.58 37.20 37.20 36.70 37.21 38.34 35.18 36.09 33.62 36.82 30.51 32.40 26.41 27.11 27.75 26.68 27.06 26.24 29.09 26.80 25.80 28.93 29.17 28.12 28.21 27.68 28.05 27.31 34.90 35.47 24.00 23.31 22.66 23.08 22.85 22.33
50.57 45.52 43.96 40.87 35.98 35.97 35.63 36.17 36.15 38.57 39.60 40.77 39.81 38.68 36.14 38.17 41.33 41.85 37.85 36.23 37.06 32.18 25.91 25.06 25.67 23.09 24.98 26.35 24.62 21.72 26.26 27.15 28.60 29.56 28.26 22.68 29.07 34.20 30.50 23.43 21.98 22.15 23.48 23.21 22.66
MSLP
1019.64 1019.31 1018.95 1018.48 1018.08 1017.74 1017.31 1016.81 1016.32 1016.07 1015.82 1015.44 1015.20 1015.02 1014.72 1014.41 1014.03 1013.92 1014.67 1014.93 1014.78 1014.32 1014.29 1013.90 1013.35 1013.26 1013.20 1013.53 1013.76 1014.24 1015.23 1015.59 1015.05 1014.94 1014.97 1014.97 1015.50 1016.71 1017.51 1018.17 1019.32 1019.93 1020.53 1021.37 1021.64
1019.81 1019.32 1018.88 1018.51 1018.03 1017.51 1017.13 1016.77 1016.49 1016.11 1015.87 1015.56 1015.24 1015.07 1014.80 1014.57 1014.59 1014.63 1014.75 1014.66 1014.45 1014.29 1014.16 1014.21 1013.91 1013.64 1013.65 1013.68 1013.96 1014.51 1015.31 1015.10 1014.87 1014.86 1015.09 1015.29 1015.76 1016.79 1018.33 1019.34 1020.59 1021.13 1021.60 1021.81 1021.59
1019.96 1019.47 1018.93 1018.46 1017.94 1017.37 1016.92 1016.56 1016.45 1016.11 1015.75 1015.57 1015.20 1014.99 1014.82 1014.69 1014.81 1014.87 1014.67 1014.46 1014.23 1014.23 1014.29 1014.22 1014.03 1013.88 1013.87 1013.79 1014.06 1014.36 1014.76 1014.75 1014.92 1014.94 1015.10 1015.54 1016.16 1016.96 1018.40 1019.78 1020.15 1021.13 1021.78 1021.68 1021.51
1019.99 1019.56 1019.09 1018.45 1017.95 1017.32 1016.69 1016.33 1016.21 1015.91 1015.64 1015.48 1015.27 1014.96 1014.86 1014.87 1015.18 1014.68 1014.60 1014.36 1014.11 1014.04 1014.18 1014.17 1014.22 1014.35 1014.44 1014.36 1014.25 1014.59 1014.50 1014.60 1014.86 1014.88 1015.24 1015.73 1016.35 1017.72 1018.60 1019.21 1019.55 1020.61 1021.09 1021.55 1021.85
1020.19 1019.58 1019.15 1018.57 1017.94 1017.27 1016.71 1016.09 1015.79 1015.64 1015.48 1015.34 1015.27 1015.00 1015.02 1015.12 1014.79 1014.44 1014.57 1014.47 1014.10 1014.25 1014.51 1014.63 1015.01 1015.19 1015.10 1014.93 1014.71 1014.91 1014.76 1014.66 1014.66 1014.85 1015.20 1015.94 1016.86 1017.95 1019.25 1019.79 1020.28 1020.83 1021.37 1021.79 1021.93
1020.42 1019.76 1019.22 1018.67 1018.03 1017.29 1016.62 1015.91 1015.57 1015.29 1015.17 1015.12 1015.14 1015.07 1015.17 1015.21 1014.62 1014.52 1014.56 1014.54 1014.75 1014.85 1014.97 1015.04 1015.38 1015.41 1015.51 1015.39 1015.35 1015.25 1015.14 1014.92 1014.70 1014.88 1015.32 1016.24 1017.63 1018.14 1019.62 1020.04 1020.68 1021.11 1021.50 1021.60 1021.54
1020.46 1019.91 1019.35 1018.75 1018.15 1017.39 1016.57 1015.77 1015.22 1015.00 1014.83 1014.97 1014.98 1015.04 1015.04 1015.02 1014.66 1014.71 1014.57 1014.77 1014.97 1015.08 1015.19 1015.32 1015.36 1015.48 1015.70 1015.69 1015.53 1015.49 1015.59 1015.25 1014.85 1014.95 1015.42 1016.32 1018.29 1018.18 1018.67 1019.92 1020.53 1020.90 1021.03 1021.28 1021.38
1020.57 1020.01 1019.38 1018.84 1018.18 1017.44 1016.61 1015.54 1014.93 1014.60 1014.45 1014.66 1014.77 1014.97 1014.96 1014.85 1014.88 1014.88 1014.83 1014.86 1015.00 1014.99 1015.16 1015.37 1015.32 1015.56 1015.73 1015.83 1015.86 1015.91 1016.05 1015.99 1015.16 1015.25 1015.63 1016.49 1016.87 1017.95 1018.66 1019.59 1020.47 1021.00 1021.43 1021.37 1021.31
1020.51 1020.04 1019.49 1018.88 1018.24 1017.49 1016.53 1015.45 1014.72 1014.33 1014.24 1014.49 1014.75 1014.79 1015.10 1014.91 1015.03 1014.90 1014.85 1014.90 1015.04 1015.21 1015.41 1015.52 1015.51 1015.99 1016.18 1016.49 1016.80 1016.90 1016.75 1016.51 1015.84 1015.33 1015.82 1016.60 1016.96 1017.78 1018.86 1019.63 1020.48 1020.85 1021.14 1021.27 1021.38
1020.31 1019.91 1019.50 1018.86 1018.29 1017.64 1016.48 1015.06 1014.20 1014.11 1014.24 1014.43 1014.54 1015.26 1015.44 1014.95 1014.91 1014.97 1014.85 1014.98 1015.07 1015.27 1015.63 1015.71 1016.10 1016.59 1017.22 1017.28 1017.47 1017.35 1017.33 1016.78 1016.41 1015.91 1016.30 1016.81 1016.96 1017.73 1018.58 1019.56 1020.07 1020.64 1021.02 1021.26 1021.36
1020.21 1019.74 1019.33 1018.87 1018.18 1017.66 1016.81 1015.31 1015.31 1015.36 1015.14 1015.21 1014.96 1014.87 1014.99 1014.94 1015.00 1015.00 1014.95 1015.07 1015.14 1015.43 1015.85 1016.10 1016.68 1016.89 1016.98 1017.15 1017.04 1017.37 1017.52 1017.54 1016.29 1015.98 1016.63 1016.42 1016.72 1017.15 1017.92 1019.19 1019.89 1020.45 1020.69 1020.91 1020.86
1020.20 1019.76 1019.24 1018.83 1018.27 1017.55 1017.51 1017.93 1018.50 1019.01 1017.14 1015.42 1015.24 1015.20 1015.10 1015.16 1015.20 1014.96 1015.05 1015.29 1015.43 1015.81 1016.18 1016.73 1016.60 1016.24 1016.67 1017.09 1017.35 1017.65 1017.90 1017.50 1016.75 1016.34 1016.84 1016.37 1016.52 1016.27 1017.20 1017.44 1017.85 1018.97 1020.00 1020.39 1020.61
1020.18 1019.88 1019.40 1018.88 1018.21 1017.82 1018.51 1019.03 1019.23 1019.15 1018.44 1015.81 1015.22 1015.10 1015.13 1015.37 1015.14 1015.03 1015.19 1015.11 1015.39 1015.94 1016.37 1016.72 1016.30 1016.39 1016.86 1017.30 1017.73 1017.74 1018.03 1017.74 1017.60 1017.43 1017.30 1016.66 1016.09 1015.77 1016.56 1017.06 1017.74 1018.64 1019.28 1019.75 1020.07
1019.98 1019.86 1019.48 1019.00 1018.65 1018.65 1019.04 1019.32 1019.31 1019.33 1018.81 1016.13 1015.44 1014.81 1015.04 1015.18 1015.36 1015.11 1015.20 1015.38 1015.61 1015.86 1016.41 1016.55 1016.38 1016.72 1017.17 1017.43 1017.73 1017.83 1017.40 1017.76 1018.19 1018.70 1018.84 1018.29 1016.45 1015.94 1016.23 1016.61 1017.33 1018.19 1018.95 1019.25 1019.64
1019.79 1019.84 1019.64 1019.34 1019.38 1019.37 1019.76 1019.53 1019.55 1019.50 1018.66 1015.37 1014.96 1014.83 1014.82 1015.23 1015.30 1015.26 1015.45 1015.38 1015.67 1016.00 1016.60 1016.10 1016.49 1017.05 1017.37 1017.17 1017.37 1017.56 1017.74 1018.38 1018.76 1019.44 1019.70 1018.89 1019.10 1015.66 1016.05 1016.30 1016.45 1017.13 1018.04 1018.91 1019.28
1019.55 1019.65 1019.61 1019.51 1019.77 1019.79 1019.69 1019.60 1019.60 1019.61 1017.07 1014.76 1014.47 1014.70 1015.03 1015.09 1015.24 1015.56 1015.69 1015.69 1015.95 1016.31 1016.49 1016.53 1016.66 1016.78 1016.82 1017.23 1017.55 1018.00 1018.52 1019.03 1019.66 1020.52 1020.39 1018.24 1018.71 1015.26 1015.92 1014.50 1015.14 1016.53 1017.54 1018.21 1018.89
1019.10 1019.44 1019.68 1019.74 1019.80 1019.86 1019.95 1019.77 1019.93 1018.20 1015.66 1014.66 1014.30 1014.52 1014.73 1015.06 1015.34 1015.63 1015.94 1016.16 1016.35 1016.84 1017.10 1017.10 1016.80 1016.86 1017.04 1017.65 1018.10 1018.59 1019.79 1020.64 1021.03 1021.40 1019.72 1018.66 1018.64 1014.07 1013.82 1013.56 1013.85 1014.85 1016.71 1017.74 1018.35
1018.73 1019.15 1019.16 1019.39 1019.79 1020.01 1019.97 1020.08 1018.71 1016.15 1015.02 1014.07 1014.14 1014.56 1014.82 1014.77 1015.23 1015.78 1016.11 1016.35 1016.12 1016.55 1017.55 1017.75 1017.21 1017.08 1017.17 1017.38 1017.81 1018.84 1019.74 1021.11 1022.03 1021.90 1019.45 1019.07 1016.85 1013.57 1013.56 1013.73 1013.51 1014.53 1016.23 1017.39 1018.07
1018.66 1019.12 1019.11 1018.86 1019.36 1019.99 1020.15 1019.04 1016.00 1015.39 1013.94 1013.90 1014.46 1014.80 1014.99 1014.81 1015.17 1015.96 1016.27 1016.08 1015.56 1015.73 1016.80 1017.38 1017.47 1017.19 1017.44 1017.56 1018.02 1019.06 1019.73 1020.06 1021.49 1022.89 1021.56 1017.65 1014.94 1013.29 1013.91 1014.49 1014.86 1015.57 1016.61 1017.36 1017.93
1018.30 1018.69 1018.43 1018.27 1019.03 1019.71 1019.84 1016.73 1015.06 1013.65 1013.08 1013.31 1013.77 1013.86 1014.48 1014.88 1015.60 1015.96 1015.87 1014.96 1015.07 1014.97 1015.13 1016.22 1017.21 1017.56 1018.06 1018.23 1018.41 1018.60 1019.09 1020.35 1021.44 1021.99 1020.68 1016.27 1014.35 1013.62 1013.93 1014.53 1015.18 1015.98 1016.50 1017.08 1017.57
1018.13 1018.29 1017.57 1017.80 1018.51 1019.05 1017.34 1015.63 1014.11 1013.00 1012.67 1012.89 1013.02 1013.47 1013.93 1014.36 1014.74 1015.25 1014.76 1014.25 1014.24 1014.92 1015.42 1016.32 1017.15 1018.42 1018.74 1018.43 1018.14 1019.32 1019.18 1019.71 1020.48 1020.50 1019.98 1017.90 1010.88 1010.29 1011.43 1012.36 1013.99 1014.67 1015.32 1016.35 1017.13
1017.52 1017.83 1017.51 1017.42 1018.27 1016.96 1015.44 1014.24 1013.32 1012.45 1012.49 1012.42 1012.39 1012.43 1012.73 1013.41 1014.05 1014.27 1013.68 1012.89 1013.07 1013.98 1015.37 1015.66 1016.66 1017.55 1016.97 1017.13 1017.28 1017.25 1017.30 1017.92 1018.70 1018.70 1017.68 1017.22 1009.74 1010.09 1010.56 1011.35 1012.98 1013.98 1014.75 1015.59 1016.36
1016.08 1016.67 1017.36 1017.27 1015.93 1015.17 1014.35 1013.29 1012.98 1012.21 1011.86 1011.67 1011.96 1011.76 1012.10 1012.75 1013.45 1012.68 1012.21 1012.06 1012.69 1013.37 1013.75 1015.07 1015.77 1016.73 1016.57 1017.40 1017.30 1017.15 1016.49 1016.18 1016.51 1016.54 1014.74 1015.73 1009.43 1009.29 1010.05 1010.84 1011.70 1012.95 1014.14 1015.10 1016.00
1015.17 1015.73 1015.96 1015.91 1013.73 1013.53 1013.63 1012.38 1011.74 1010.77 1011.06 1010.85 1010.87 1011.26 1011.52 1011.56 1011.72 1011.46 1012.09 1012.42 1012.83 1012.95 1013.03 1013.60 1014.30 1014.51 1014.13 1013.53 1014.63 1015.71 1015.20 1015.53 1015.93 1014.97 1013.01 1011.17 1009.11 1008.18 1009.91 1011.21 1012.36 1013.06 1013.97 1014.69 1015.47
1012.47 1011.86 1012.23 1012.49 1012.35 1012.91 1012.96 1010.40 1010.02 1010.16 1009.79 1009.84 1009.94 1009.53 1010.32 1010.79 1010.78 1010.98 1011.69 1012.87 1013.43 1013.54 1013.85 1013.94 1013.75 1014.11 1012.84 1012.93 1013.91 1013.66 1012.43 1014.17 1013.79 1012.05 1012.60 1007.88 1008.49 1007.75 1007.55 1009.71 1011.14 1011.72 1013.39 1014.45 1015.35
1009.41 1009.59 1010.79 1010.26 1010.34 1011.29 1010.99 1007.85 1009.31 1008.88 1009.09 1008.44 1008.15 1008.36 1009.02 1008.74 1008.89 1009.00 1010.29 1011.72 1012.50 1014.03 1014.22 1014.38 1013.58 1013.80 1013.21 1013.26 1013.75 1013.30 1011.01 1011.79 1011.64 1010.45 1010.41 1008.40 1006.83 1004.82 1006.97 1008.69 1010.01 1011.47 1012.75 1014.06 1014.81
1007.03 1007.68 1007.53 1007.45 1008.61 1009.39 1006.35 1006.81 1006.96 1008.86 1007.02 1006.76 1007.26 1008.18 1007.55 1006.63 1007.27 1007.39 1009.13 1009.69 1010.29 1011.59 1013.49 1014.22 1014.11 1014.35 1012.99 1013.53 1014.35 1012.10 1008.26 1009.49 1008.95 1008.04 1008.38 1008.30 1004.75 1004.99 1007.12 1008.38 1009.84 1011.13 1012.14 1013.26 1014.51
Wind_Speed
15 16 17 17 16 15 15 15 15 13 11 12 11 9 8 9 6 6 6 5 6 13 8 7 3 6 2 3 3 3 5 1 2 3 2 2 3 4 4 8 6 5 4 6 1
16 16 17 18 17 15 14 14 13 13 11 10 9 6 6 6 3 6 3 8 10 7 4 6 6 7 3 2 2 5 4 2 1 3 3 0 3 8 6 4 5 6 6 5 6
16 17 18 19 18 17 16 13 11 12 10 9 8 6 5 5 3 3 3 8 9 4 2 2 3 1 3 3 3 1 3 2 1 3 4 4 1 2 13 2 7 10 8 5 7
16 16 18 19 20 19 18 16 12 11 10 9 7 5 5 1 1 2 7 8 9 3 2 3 5 4 3 4 3 3 2 2 6 3 4 5 4 5 1 3 11 12 10 7 9
17 16 17 18 20 20 20 17 14 11 9 7 6 2 1 3 4 0 7 7 4 3 5 4 5 2 2 4 5 1 4 3 0 5 6 6 1 7 4 7 9 10 8 9 7
19 17 17 18 20 21 20 20 15 11 9 6 4 1 2 1 3 3 4 3 5 4 4 5 3 2 1 2 1 2 3 8 6 1 5 7 3 2 7 7 9 9 9 8 9
18 18 17 17 19 21 22 21 18 13 7 4 1 1 2 4 1 3 3 2 2 1 1 1 3 3 1 3 3 3 6 6 4 5 5 10 1 9 10 10 11 10 9 8 7
16 17 17 18 19 21 22 22 20 17 5 3 3 1 3 0 0 2 1 2 1 1 2 2 2 3 3 2 3 2 3 3 3 3 1 6 10 4 10 14 10 9 7 8 7
13 15 16 18 19 21 23 24 19 8 4 5 3 3 3 2 2 2 1 1 1 2 2 1 2 3 4 3 5 5 4 4 7 8 2 6 6 5 7 11 10 9 8 7 6
10 13 15 17 19 21 25 19 12 4 1 2 1 3 2 4 1 1 1 1 1 1 2 2 5 3 4 4 4 5 5 6 7 3 4 7 13 8 13 9 13 9 8 7 7
12 10 14 17 18 21 13 7 8 5 8 3 3 3 1 3 1 3 1 2 2 3 1 3 4 6 8 6 4 3 5 7 6 7 6 11 16 14 17 8 10 10 10 9 9
13 11 12 16 19 19 2 5 3 1 9 2 3 3 3 2 2 4 2 5 4 3 0 6 4 5 2 3 4 5 6 8 10 5 3 9 11 9 17 22 21 17 11 10 6
12 11 13 17 20 4 3 4 2 1 1 6 3 2 3 5 5 5 3 3 4 4 5 5 4 5 3 3 5 4 6 6 9 4 6 9 8 18 4 12 8 8 10 7 10
11 10 11 20 2 2 1 1 2 1 5 7 4 3 3 3 3 1 1 3 2 7 4 6 1 4 5 5 7 6 3 5 5 4 4 4 12 4 7 16 13 14 10 10 9
10 8 10 5 3 1 2 1 1 3 3 6 4 3 3 5 4 2 1 3 5 6 5 9 6 6 6 7 8 9 0 4 3 5 4 7 6 6 3 9 15 17 13 10 9
10 6 6 2 2 0 2 2 2 6 10 4 5 5 4 3 3 3 1 3 1 4 1 6 0 5 7 2 1 1 3 4 3 3 2 7 9 6 7 11 9 15 12 12 9
8 4 0 1 2 3 1 2 4 6 3 6 6 6 4 6 4 6 6 5 6 1 4 2 5 1 3 2 3 3 5 5 6 3 10 5 4 17 8 8 12 23 17 12 9
8 6 5 2 4 4 2 5 8 8 8 2 3 3 7 7 4 5 4 4 5 3 3 4 8 9 5 6 7 6 7 7 7 5 15 2 11 8 5 7 7 11 14 9 9
10 2 3 4 6 3 4 7 12 10 8 10 3 4 5 4 3 5 8 7 8 11 10 7 8 2 1 1 4 5 6 2 1 2 4 7 8 6 4 3 6 11 10 10 9
3 2 4 9 8 4 3 18 9 8 6 4 12 10 9 7 7 7 8 6 6 11 3 5 7 2 2 1 0 4 4 3 1 3 8 7 11 14 8 11 8 11 13 10 8
2 3 2 7 5 3 12 11 10 8 5 8 9 7 8 9 9 7 8 4 8 6 6 6 5 2 4 8 11 1 4 3 2 5 5 5 19 8 16 18 19 17 16 13 10
3 5 4 8 6 5 16 9 6 7 9 7 5 9 11 10 8 9 14 12 11 11 12 8 6 7 14 2 2 2 10 13 7 7 8 3 20 2 9 12 19 17 15 9 8
4 4 4 4 10 13 5 7 10 8 11 10 12 9 6 8 6 12 15 7 13 13 13 10 5 2 7 2 2 7 7 10 1 2 21 10 17 1 1 7 11 16 12 9 9
4 5 5 7 9 10 14 15 14 10 21 7 8 6 6 9 13 8 5 5 5 8 8 13 7 10 18 14 7 7 9 10 17 15 18 30 38 26 12 8 6 7 8 9 8
7 9 9 9 17 20 13 8 23 17 9 19 16 20 14 14 14 15 8 1 1 4 5 9 14 9 22 19 4 15 24 13 23 28 21 40 33 30 25 14 17 19 9 10 8
10 8 3 3 5 25 27 36 26 12 13 22 24 15 25 25 22 16 23 8 11 2 8 4 9 6 16 9 8 21 26 24 25 31 28 36 41 39 25 4 9 15 14 11 8
7 2 9 13 12 16 30 33 28 22 19 22 21 20 23 28 30 29 7 7 10 15 13 10 7 5 21 4 4 17 27 27 22 25 21 24 39 30 18 9 12 15 16 13 10
Wind_Direction
5 360 355 353 352 350 348 346 345 350 356 355 356 351 345 336 354 39 40 271 295 311 326 289 359 348 51 21 33 103 60 30 333 142 161 342 108 34 359 84 50 23 88 125 114
359 357 354 350 346 345 342 343 341 341 348 351 348 347 337 326 69 49 244 287 290 310 6 17 348 349 9 347 21 82 101 209 346 137 155 307 133 146 92 69 64 85 74 85 68
354 353 352 348 345 339 337 340 336 333 346 345 337 338 328 307 45 313 306 307 306 295 230 289 293 318 36 10 357 140 165 192 106 145 175 157 81 71 129 189 194 161 145 121 89
350 349 346 345 342 336 334 334 337 335 344 341 328 327 337 263 139 262 330 328 322 312 287 31 13 28 41 341 344 352 301 206 177 201 152 162 132 64 8 144 134 149 153 137 104
344 343 342 341 337 336 330 328 333 332 336 335 316 339 69 46 222 56 351 347 15 357 45 48 50 3 8 328 344 159 316 333 96 176 133 112 163 146 121 133 128 137 129 124 122
342 339 340 340 337 333 329 323 324 325 332 324 301 352 125 222 122 37 4 9 29 17 23 43 117 141 255 301 337 312 294 287 290 207 168 123 172 78 219 170 142 137 143 144 135
341 333 335 337 335 331 326 320 320 313 326 296 219 233 127 227 192 70 54 113 26 40 109 125 135 130 157 318 320 321 327 323 245 195 208 111 330 229 161 169 165 166 164 155 149
335 327 332 333 333 329 323 316 315 308 322 177 144 154 219 101 169 350 358 74 94 42 99 140 117 109 139 277 17 6 56 351 280 164 200 128 257 238 174 165 178 172 169 163 171
326 324 328 330 331 327 321 311 308 298 143 142 120 140 257 112 185 214 183 196 350 79 52 95 71 95 35 68 6 4 244 233 310 207 135 183 263 223 182 181 183 191 184 173 162
312 322 325 329 329 327 321 301 287 306 126 154 48 41 135 221 168 260 234 129 82 85 40 50 51 55 27 71 255 252 285 275 241 266 197 249 261 190 198 194 196 193 192 180 173
305 317 325 326 327 328 342 352 14 343 36 223 224 252 139 299 104 223 161 98 60 40 26 339 63 240 248 210 197 207 235 230 253 255 222 232 246 205 199 204 204 202 195 185 190
307 317 325 323 322 324 7 75 89 237 303 296 238 265 218 159 291 222 125 160 153 200 65 5 254 225 184 225 237 232 261 264 285 240 209 269 248 227 191 211 205 191 192 187 191
304 313 325 323 318 21 71 139 353 337 284 296 219 201 199 145 223 213 174 157 159 164 201 169 254 113 170 231 257 230 212 251 240 338 290 284 246 242 219 224 191 192 193 183 182
300 313 329 327 335 321 96 350 53 34 51 268 248 250 128 144 273 49 341 154 187 193 191 229 255 185 220 231 172 276 226 256 282 358 259 349 293 260 192 224 204 189 196 185 188
290 305 331 335 287 305 105 100 66 60 355 253 194 151 139 166 131 221 341 57 192 188 130 252 177 190 217 224 164 236 182 262 264 258 349 230 259 243 141 245 211 197 191 189 192
268 269 345 360 326 24 131 108 74 52 251 247 149 184 157 183 200 102 147 49 65 151 279 248 290 188 209 138 172 35 334 299 47 98 260 233 195 226 192 217 194 201 186 187 183
252 216 284 62 258 139 132 72 41 178 274 225 207 178 187 187 203 178 176 179 188 275 270 335 221 58 157 125 18 81 56 314 335 347 235 180 233 256 234 225 196 195 180 182 178
195 154 214 186 140 134 86 57 203 221 228 62 144 104 183 159 223 165 142 235 231 114 110 208 305 175 181 197 185 177 175 166 260 248 293 352 246 253 290 306 231 171 163 169 174
143 184 217 189 149 121 88 214 194 192 203 158 83 167 228 216 202 152 200 203 212 170 185 176 266 118 245 173 157 179 189 153 184 126 10 237 277 276 80 45 101 146 160 182 185
166 210 220 146 140 96 127 228 217 202 145 147 183 176 191 204 171 179 187 204 214 189 158 216 289 208 175 171 14 164 155 68 4 285 273 263 272 247 199 207 187 183 193 196 194
148 230 175 138 125 175 219 226 223 245 184 169 201 202 200 184 193 195 215 237 202 171 153 144 174 182 118 208 182 161 215 199 197 162 227 298 279 207 192 202 192 201 195 189 192
201 232 167 167 178 222 225 191 226 212 219 252 198 199 186 181 204 210 213 204 167 156 169 200 166 202 211 237 281 244 207 184 185 222 236 217 259 167 206 195 194 201 191 187 183
216 194 180 251 216 213 237 234 239 190 201 215 229 194 194 201 251 211 240 209 159 160 172 179 217 325 314 359 330 225 210 219 4 306 245 239 266 22 176 154 197 184 183 186 180
152 215 182 213 234 224 214 230 223 209 231 202 204 172 162 222 218 255 222 222 199 208 162 145 186 179 237 236 137 215 199 202 211 238 255 242 265 258 251 202 203 194 185 182 185
188 214 190 201 218 225 224 236 223 223 211 206 240 223 205 235 224 232 223 241 300 208 178 170 235 192 248 261 192 263 259 204 217 238 235 261 259 265 265 233 202 199 172 178 182
191 192 208 189 168 206 219 232 231 219 183 215 226 204 218 230 214 229 223 175 201 161 173 194 249 151 258 243 222 259 263 253 244 250 249 254 268 265 278 144 160 176 176 179 187
214 266 199 207 199 191 220 233 235 222 237 229 225 228 230 227 227 236 211 190 202 181 184 167 182 135 256 116 3 271 249 237 246 242 232 243 245 264 260 193 176 176 179 179 182